Regional Weather Roundup
Issued by NWS

Home | Current Version | Previous Version | Graphics & Text | Print | Product List | Glossary Off
Versions: 1 2 3 4 5 6 7 8 9 10 11 12 13 14 15 16 17 18 19 20 21 22 23 24 25 26 27 28 29 30 31 32 33 34 35 36 37 38 39 40 41 42 43 44 45 46 47 48 49 50

000
ASUS43 KOAX 211810
RWRNE

WEATHER ROUNDUP FOR NEBRASKA
NATIONAL WEATHER SERVICE OMAHA NE
100 PM CDT THU AUG 21 2014

NOTES: SATELLITE DATA IS BEING USED TO AUGMENT CLOUD COVER ABOVE
       12000 FEET.
       "FAIR" INDICATES FEW OR NO CLOUDS BELOW 12,000 FEET WITH NO
       SIGNIFICANT WEATHER AND/OR OBSTRUCTIONS TO VISIBILITY.

  * THESE STATIONS DO NOT REPORT WEATHER SUCH AS RAIN...SNOW OR FOG.

NEZ001>004-019>022-054>056-211900-
NEBRASKA PANHANDLE

CITY           SKY/WX    TMP DP  RH WIND       PRES   REMARKS
SCOTTSBLUFF    MOSUNNY   82  55  39 VRB3      30.02S
6HR MIN TEMP:  57; 6HR MAX TEMP:  83;

ALLIANCE       MOSUNNY   84  50  30 N10G23    30.01R
6HR MIN TEMP:  58; 6HR MAX TEMP:  84;

CHADRON        SUNNY     84  54  35 NE8       29.97F
6HR MIN TEMP:  55; 6HR MAX TEMP:  84;

KIMBALL        SUNNY     82  45  27 N9        30.06F
SIDNEY         SUNNY     85  49  28 NW15G21   30.04S
6HR MIN TEMP:  61; 6HR MAX TEMP:  85;

$$

NEZ057>060-069>072-079>082-211900-
SOUTHWEST NEBRASKA

CITY           SKY/WX    TMP DP  RH WIND       PRES   REMARKS
NORTH PLATTE   SUNNY     87  64  46 E7        29.91S
6HR MIN TEMP:  63; 6HR MAX TEMP:  88;

IMPERIAL       SUNNY     85  54  34 N6        29.96S
6HR MIN TEMP:  65; 6HR MAX TEMP:  86;

LEXINGTON      SUNNY     84  70  63 NW12      29.89S
MCCOOK         SUNNY     91  57  31 NW12      29.90F
6HR MIN TEMP:  68; 6HR MAX TEMP:  91;

OGALLALA       SUNNY     84  54  36 W3        29.95S
$$

NEZ005>010-023>029-035>040-094-211900-
NORTH CENTRAL NEBRASKA

CITY           SKY/WX    TMP DP  RH WIND       PRES   REMARKS
VALENTINE      SUNNY     83  60  45 NW10      29.92S
6HR MIN TEMP:  63; 6HR MAX TEMP:  83;

AINSWORTH      SUNNY     79  62  56 N8        29.91S
BROKEN BOW     SUNNY     84  68  58 NE8       29.91R
6HR MIN TEMP:  64; 6HR MAX TEMP:  84;

O`NEILL        MOSUNNY   80  71  73 N3        29.88R
ORD            SUNNY     83  68  60 N7        29.86R
6HR MIN TEMP:  67; 6HR MAX TEMP:  84;

THEDFORD       SUNNY     83  62  49 NE8       29.94F
$$

NEZ041-046>049-061>064-073>077-083>087-211900-
SOUTH CENTRAL NEBRASKA

CITY           SKY/WX    TMP DP  RH WIND       PRES   REMARKS
GRAND ISLAND   SUNNY     86  70  58 S9        29.86R HX  90
6HR MIN TEMP:  70; 6HR MAX TEMP:  86; 6HR PCP:  0.01;

AURORA         MOSUNNY   83  71  67 SW13      29.86R
HASTINGS       LGT RAIN  76  67  73 S5        29.86F
6HR MIN TEMP:  71; 6HR MAX TEMP:  78; 6HR PCP:  0.01;

HEBRON         CLOUDY    82  68  63 S7        29.86R
HOLDREGE       MOSUNNY   82  70  66 SW6       29.89R
KEARNEY *      MOSUNNY   84  70  61 S9        29.87S
YORK           MOSUNNY   81 N/A N/A SW13      29.86R
$$

NEZ011>018-030>034-042>045-211900-
NORTHEAST NEBRASKA

CITY           SKY/WX    TMP DP  RH WIND       PRES   REMARKS
NORFOLK        SUNNY     88  71  57 W13       29.82R HX  94
6HR MIN TEMP:  74; 6HR MAX TEMP:  88;

ALBION         SUNNY     85  69  58 W9        29.85R
BLAIR          PTSUNNY   86  70  58 SW9       29.82S HX  91
FREMONT        MOSUNNY   88  68  51 SW10      29.83S HX  91
TEKAMAH        SUNNY     89  70  53 SW10      29.80F HX  94
6HR MIN TEMP:  73; 6HR MAX TEMP:  89; 6HR PCP: TRACE;

WAYNE          SUNNY     86  73  65 W7        29.81S HX  92
$$

NEZ050>053-065>068-078-088>093-211900-
SOUTHEAST NEBRASKA

CITY           SKY/WX    TMP DP  RH WIND       PRES   REMARKS
LINCOLN        PTSUNNY   84  69  60 SW13      29.83R
6HR MIN TEMP:  71; 6HR MAX TEMP:  84; 6HR PCP:  0.22;

OMAHA EPPLEY   PTSUNNY   85  69  58 S12       29.82S
6HR MIN TEMP:  75; 6HR MAX TEMP:  86; 6HR PCP:  0.02;

BEATRICE       CLOUDY    83  73  72 SW6       29.85R
FALLS CITY     PTSUNNY   92  70  48 S7        29.85F HX  97
6HR MIN TEMP:  78; 6HR MAX TEMP:  92;

NEBRASKA CITY  CLOUDY    81  71  71 S9        29.83R
PLATTSMOUTH    CLOUDY    81  70  68 SE5       29.83S
$$

NEZ044-045-051>053-067-211900-
OMAHA AREA

CITY           SKY/WX    TMP DP  RH WIND       PRES   REMARKS
OMAHA EPPLEY   PTSUNNY   85  69  58 S12       29.82S
6HR MIN TEMP:  75; 6HR MAX TEMP:  86; 6HR PCP:  0.02;

BLAIR          PTSUNNY   86  70  58 SW9       29.82S HX  91
FREMONT        MOSUNNY   88  68  51 SW10      29.83S HX  91
MILLARD        PTSUNNY   84  70  63 S10       29.82R
OFFUTT AFB     PTSUNNY   82  77  85 SE8       29.82R
PLATTSMOUTH    CLOUDY    81  70  68 SE5       29.83S
WAHOO          FAIR      87  68  53 SW9       29.83R HX  90
$$


USA.gov is the U.S. government's official web portal to all federal, state and local government web resources and services.